Location: Dodgeville, WI 53533, USA
(43.0344°N, 90.0900°W)
Time: 06:47:54
(UTC-05:00)

Tiangong - Visible Passes

Search period start: 01 October 2022 00:00
Search period end: 11 October 2022 00:00
Orbit: 381 x 385 km, 41.5° (Epoch: 01 October)

Date Brightness Start Highest point End Pass type
(mag) Time Alt. Az. Time Alt. Az. Time Alt. Az.
06 Oct 0.6 20:19:08 10° SSW 20:19:17 11° SSW 20:19:17 11° SSW visible
07 Oct 0.2 19:20:30 10° SSE 19:21:24 11° SSE 19:22:17 10° SE visible
08 Oct -0.8 19:54:53 10° SW 19:57:24 26° SSE 19:57:24 26° SSE visible
09 Oct -0.2 18:55:22 10° SSW 18:57:34 17° SSE 18:59:45 10° ESE visible
09 Oct -0.1 20:30:54 10° WSW 20:32:22 24° SW 20:32:22 24° SW visible
10 Oct -1.4 19:30:52 10° SW 19:33:49 38° SSE 19:35:04 26° ESE visible
